Year,Month,Day,Hour,Minute,Value (Times are PST for temperature in C)
2016,08,24,00,00,16.70
2016,08,24,00,01,16.70
2016,08,24,00,02,16.60
2016,08,24,00,03,16.60
2016,08,24,00,04,16.60
2016,08,24,00,05,16.60
2016,08,24,00,06,16.60
2016,08,24,00,07,16.60
2016,08,24,00,08,16.50
2016,08,24,00,09,16.50
2016,08,24,00,10,16.50
2016,08,24,00,11,16.50
2016,08,24,00,12,16.40
2016,08,24,00,13,16.40
2016,08,24,00,14,16.40
2016,08,24,00,15,16.40
2016,08,24,00,16,16.40
2016,08,24,00,17,16.40
2016,08,24,00,18,16.30
2016,08,24,00,19,16.30
2016,08,24,00,20,16.30
2016,08,24,00,21,16.30
2016,08,24,00,22,16.30
2016,08,24,00,23,16.30
2016,08,24,00,24,16.30
2016,08,24,00,25,16.30
2016,08,24,00,26,16.20
2016,08,24,00,27,16.20
2016,08,24,00,28,16.20
2016,08,24,00,29,16.20
2016,08,24,00,30,16.20
2016,08,24,00,31,16.20
2016,08,24,00,32,16.20
2016,08,24,00,33,16.20
2016,08,24,00,34,16.20
2016,08,24,00,35,16.20
2016,08,24,00,36,16.20
2016,08,24,00,37,16.20
2016,08,24,00,38,16.20
2016,08,24,00,39,16.20
2016,08,24,00,40,16.20
2016,08,24,00,41,16.20
2016,08,24,00,42,16.20
2016,08,24,00,43,16.20
2016,08,24,00,44,16.20
2016,08,24,00,45,16.20
2016,08,24,00,46,16.20
2016,08,24,00,47,16.20
2016,08,24,00,48,16.20
2016,08,24,00,49,16.20
2016,08,24,00,50,16.20
2016,08,24,00,51,16.20
2016,08,24,00,52,16.20
2016,08,24,00,53,16.20
2016,08,24,00,54,16.20
2016,08,24,00,55,16.20
2016,08,24,00,56,16.20
2016,08,24,00,57,16.20
2016,08,24,00,58,16.10
2016,08,24,00,59,16.10
2016,08,24,01,00,16.10
2016,08,24,01,01,16.10
2016,08,24,01,02,16.10
2016,08,24,01,03,16.10
2016,08,24,01,04,16.10
2016,08,24,01,05,16.10
2016,08,24,01,06,16.00
2016,08,24,01,07,16.00
2016,08,24,01,08,16.00
2016,08,24,01,09,16.00
2016,08,24,01,10,15.90
2016,08,24,01,11,15.90
2016,08,24,01,12,15.90
2016,08,24,01,13,15.90
2016,08,24,01,14,15.90
2016,08,24,01,15,15.90
2016,08,24,01,16,15.80
2016,08,24,01,17,15.80
2016,08,24,01,18,15.80
2016,08,24,01,19,15.80
2016,08,24,01,20,15.80
2016,08,24,01,21,15.80
2016,08,24,01,22,15.80
2016,08,24,01,23,15.70
2016,08,24,01,24,15.70
2016,08,24,01,25,15.70
2016,08,24,01,26,15.70
2016,08,24,01,27,15.70
2016,08,24,01,28,15.70
2016,08,24,01,29,15.70
2016,08,24,01,30,15.70
2016,08,24,01,31,15.70
2016,08,24,01,32,15.70
2016,08,24,01,33,15.70
2016,08,24,01,34,15.70
2016,08,24,01,35,15.70
2016,08,24,01,36,15.70
2016,08,24,01,37,15.70
2016,08,24,01,38,15.70
2016,08,24,01,39,15.70
2016,08,24,01,40,15.70
2016,08,24,01,41,15.70
2016,08,24,01,42,15.70
2016,08,24,01,43,15.70
2016,08,24,01,44,15.60
2016,08,24,01,45,15.60
2016,08,24,01,46,15.60
2016,08,24,01,47,15.60
2016,08,24,01,48,15.50
2016,08,24,01,49,15.50
2016,08,24,01,50,15.50
2016,08,24,01,51,15.40
2016,08,24,01,52,15.40
2016,08,24,01,53,15.40
2016,08,24,01,54,15.40
2016,08,24,01,55,15.40
2016,08,24,01,56,15.40
2016,08,24,01,57,15.40
2016,08,24,01,58,15.40
2016,08,24,01,59,15.40
2016,08,24,02,00,15.40
2016,08,24,02,01,15.40
2016,08,24,02,02,15.40
2016,08,24,02,03,15.40
2016,08,24,02,04,15.40
2016,08,24,02,05,15.40
2016,08,24,02,06,15.50
2016,08,24,02,07,15.50
2016,08,24,02,08,15.50
2016,08,24,02,09,15.50
2016,08,24,02,10,15.50
2016,08,24,02,11,15.60
2016,08,24,02,12,15.60
2016,08,24,02,13,15.60
2016,08,24,02,14,15.70
2016,08,24,02,15,15.70
2016,08,24,02,16,15.70
2016,08,24,02,17,15.70
2016,08,24,02,18,15.70
2016,08,24,02,19,15.70
2016,08,24,02,20,15.70
2016,08,24,02,21,15.70
2016,08,24,02,22,15.70
2016,08,24,02,23,15.70
2016,08,24,02,24,15.70
2016,08,24,02,25,15.70
2016,08,24,02,26,15.70
2016,08,24,02,27,15.70
2016,08,24,02,28,15.70
2016,08,24,02,29,15.70
2016,08,24,02,30,15.70
2016,08,24,02,31,15.70
2016,08,24,02,32,15.70
2016,08,24,02,33,15.70
2016,08,24,02,34,15.70
2016,08,24,02,35,15.70
2016,08,24,02,36,15.60
2016,08,24,02,37,15.60
2016,08,24,02,38,15.60
2016,08,24,02,39,15.60
2016,08,24,02,40,15.60
2016,08,24,02,41,15.50
2016,08,24,02,42,15.50
2016,08,24,02,43,15.50
2016,08,24,02,44,15.40
2016,08,24,02,45,15.40
2016,08,24,02,46,15.40
2016,08,24,02,47,15.40
2016,08,24,02,48,15.40
2016,08,24,02,49,15.40
2016,08,24,02,50,15.40
2016,08,24,02,51,15.40
2016,08,24,02,52,15.40
2016,08,24,02,53,15.40
2016,08,24,02,54,15.30
2016,08,24,02,55,15.30
2016,08,24,02,56,15.30
2016,08,24,02,57,15.30
2016,08,24,02,58,15.30
2016,08,24,02,59,15.30
2016,08,24,03,00,15.30
2016,08,24,03,01,15.30
2016,08,24,03,02,15.30
2016,08,24,03,03,15.30
2016,08,24,03,04,15.30
2016,08,24,03,05,15.20
2016,08,24,03,06,15.20
2016,08,24,03,07,15.20
2016,08,24,03,08,15.20
2016,08,24,03,09,15.20
2016,08,24,03,10,15.20
2016,08,24,03,11,15.20
2016,08,24,03,12,15.20
2016,08,24,03,13,15.20
2016,08,24,03,14,15.20
2016,08,24,03,15,15.20
2016,08,24,03,16,15.10
2016,08,24,03,17,15.10
2016,08,24,03,18,15.10
2016,08,24,03,19,15.10
2016,08,24,03,20,15.10
2016,08,24,03,21,15.10
2016,08,24,03,22,15.00
2016,08,24,03,23,15.00
2016,08,24,03,24,14.90
2016,08,24,03,25,14.90
2016,08,24,03,26,14.90
2016,08,24,03,27,14.90
2016,08,24,03,28,14.90
2016,08,24,03,29,14.80
2016,08,24,03,30,14.80
2016,08,24,03,31,14.80
2016,08,24,03,32,14.80
2016,08,24,03,33,14.70
2016,08,24,03,34,14.70
2016,08,24,03,35,14.70
2016,08,24,03,36,14.70
2016,08,24,03,37,14.70
2016,08,24,03,38,14.60
2016,08,24,03,39,14.60
2016,08,24,03,40,14.60
2016,08,24,03,41,14.60
2016,08,24,03,42,14.60
2016,08,24,03,43,14.60
2016,08,24,03,44,14.60
2016,08,24,03,45,14.50
2016,08,24,03,46,14.50
2016,08,24,03,47,14.50
2016,08,24,03,48,14.40
2016,08,24,03,49,14.40
2016,08,24,03,50,14.40
2016,08,24,03,51,14.40
2016,08,24,03,52,14.40
2016,08,24,03,53,14.40
2016,08,24,03,54,14.40
2016,08,24,03,55,14.40
2016,08,24,03,56,14.40
2016,08,24,03,57,14.40
2016,08,24,03,58,14.40
2016,08,24,03,59,14.40
2016,08,24,04,00,14.40
2016,08,24,04,01,14.30
2016,08,24,04,02,14.30
2016,08,24,04,03,14.30
2016,08,24,04,04,14.30
2016,08,24,04,05,14.30
2016,08,24,04,06,14.30
2016,08,24,04,07,14.30
2016,08,24,04,08,14.30
2016,08,24,04,09,14.30
2016,08,24,04,10,14.30
2016,08,24,04,11,14.30
2016,08,24,04,12,14.20
2016,08,24,04,13,14.20
2016,08,24,04,14,14.20
2016,08,24,04,15,14.20
2016,08,24,04,16,14.20
2016,08,24,04,17,14.20
2016,08,24,04,18,14.20
2016,08,24,04,19,14.20
2016,08,24,04,20,14.20
2016,08,24,04,21,14.20
2016,08,24,04,22,14.20
2016,08,24,04,23,14.30
2016,08,24,04,24,14.30
2016,08,24,04,25,14.30
2016,08,24,04,26,14.30
2016,08,24,04,27,14.30
2016,08,24,04,28,14.30
2016,08,24,04,29,14.30
2016,08,24,04,30,14.30
2016,08,24,04,31,14.30
2016,08,24,04,32,14.40
2016,08,24,04,33,14.40
2016,08,24,04,34,14.40
2016,08,24,04,35,14.40
2016,08,24,04,36,14.40
2016,08,24,04,37,14.40
2016,08,24,04,38,14.40
2016,08,24,04,39,14.30
2016,08,24,04,40,14.30
2016,08,24,04,41,14.30
2016,08,24,04,42,14.30
2016,08,24,04,43,14.30
2016,08,24,04,44,14.30
2016,08,24,04,45,14.30
2016,08,24,04,46,14.20
2016,08,24,04,47,14.20
2016,08,24,04,48,14.20
2016,08,24,04,49,14.20
2016,08,24,04,50,14.20
2016,08,24,04,51,14.20
2016,08,24,04,52,14.20
2016,08,24,04,53,14.20
2016,08,24,04,54,14.20
2016,08,24,04,55,14.20
2016,08,24,04,56,14.20
2016,08,24,04,57,14.20
2016,08,24,04,58,14.10
2016,08,24,04,59,14.10
2016,08,24,05,00,14.10
2016,08,24,05,01,14.10
2016,08,24,05,02,14.10
2016,08,24,05,03,14.10
2016,08,24,05,04,14.10
2016,08,24,05,05,14.10
2016,08,24,05,06,14.10
2016,08,24,05,07,14.10
2016,08,24,05,08,14.00
2016,08,24,05,09,14.00
2016,08,24,05,10,14.00
2016,08,24,05,11,14.00
2016,08,24,05,12,14.00
2016,08,24,05,13,14.00
2016,08,24,05,14,14.00
2016,08,24,05,15,14.00
2016,08,24,05,16,14.10
2016,08,24,05,17,14.10
2016,08,24,05,18,14.10
2016,08,24,05,19,14.10
2016,08,24,05,20,14.10
2016,08,24,05,21,14.10
2016,08,24,05,22,14.10
2016,08,24,05,23,14.10
2016,08,24,05,24,14.00
2016,08,24,05,25,14.00
2016,08,24,05,26,14.00
2016,08,24,05,27,14.00
2016,08,24,05,28,14.00
2016,08,24,05,29,13.90
2016,08,24,05,30,13.90
2016,08,24,05,31,13.90
2016,08,24,05,32,13.90
2016,08,24,05,33,13.90
2016,08,24,05,34,13.90
2016,08,24,05,35,13.90
2016,08,24,05,36,13.90
2016,08,24,05,37,13.90
2016,08,24,05,38,13.80
2016,08,24,05,39,13.80
2016,08,24,05,40,13.80
2016,08,24,05,41,13.80
2016,08,24,05,42,13.80
2016,08,24,05,43,13.80
2016,08,24,05,44,13.80
2016,08,24,05,45,13.80
2016,08,24,05,46,13.80
2016,08,24,05,47,13.80
2016,08,24,05,48,13.80
2016,08,24,05,49,13.80
2016,08,24,05,50,13.80
2016,08,24,05,51,13.70
2016,08,24,05,52,13.70
2016,08,24,05,53,13.70
2016,08,24,05,54,13.70
2016,08,24,05,55,13.70
2016,08,24,05,56,13.70
2016,08,24,05,57,13.70
2016,08,24,05,58,13.80
2016,08,24,05,59,13.80
2016,08,24,06,00,13.80
2016,08,24,06,01,13.80
2016,08,24,06,02,13.80
2016,08,24,06,03,13.80
2016,08,24,06,04,13.80
2016,08,24,06,05,13.80
2016,08,24,06,06,13.80
2016,08,24,06,07,13.80
2016,08,24,06,08,13.80
2016,08,24,06,09,13.80
2016,08,24,06,10,13.80
2016,08,24,06,11,13.80
2016,08,24,06,12,13.80
2016,08,24,06,13,13.80
2016,08,24,06,14,13.80
2016,08,24,06,15,13.80
2016,08,24,06,16,13.80
2016,08,24,06,17,13.80
2016,08,24,06,18,13.80
2016,08,24,06,19,13.80
2016,08,24,06,20,13.80
2016,08,24,06,21,13.80
2016,08,24,06,22,13.80
2016,08,24,06,23,13.80
2016,08,24,06,24,13.80
2016,08,24,06,25,13.80
2016,08,24,06,26,13.80
2016,08,24,06,27,13.80
2016,08,24,06,28,13.80
2016,08,24,06,29,13.80
2016,08,24,06,30,13.80
2016,08,24,06,31,13.80
2016,08,24,06,32,13.80
2016,08,24,06,33,13.80
2016,08,24,06,34,13.80
2016,08,24,06,35,13.80
2016,08,24,06,36,13.80
2016,08,24,06,37,13.80
2016,08,24,06,38,13.80
2016,08,24,06,39,13.80
2016,08,24,06,40,13.80
2016,08,24,06,41,13.80
2016,08,24,06,42,13.80
2016,08,24,06,43,13.80
2016,08,24,06,44,13.90
2016,08,24,06,45,13.90
2016,08,24,06,46,13.90
2016,08,24,06,47,13.90
2016,08,24,06,48,13.90
2016,08,24,06,49,14.00
2016,08,24,06,50,14.00
2016,08,24,06,51,14.00
2016,08,24,06,52,14.10
2016,08,24,06,53,14.10
2016,08,24,06,54,14.10
2016,08,24,06,55,14.10
2016,08,24,06,56,14.10
2016,08,24,06,57,14.20
2016,08,24,06,58,14.20
2016,08,24,06,59,14.20
2016,08,24,07,00,14.20
2016,08,24,07,01,14.20
2016,08,24,07,02,14.30
2016,08,24,07,03,14.30
2016,08,24,07,04,14.30
2016,08,24,07,05,14.30
2016,08,24,07,06,14.40
2016,08,24,07,07,14.40
2016,08,24,07,08,14.40
2016,08,24,07,09,14.40
2016,08,24,07,10,14.50
2016,08,24,07,11,14.50
2016,08,24,07,12,14.60
2016,08,24,07,13,14.60
2016,08,24,07,14,14.60
2016,08,24,07,15,14.70
2016,08,24,07,16,14.70
2016,08,24,07,17,14.70
2016,08,24,07,18,14.80
2016,08,24,07,19,14.80
2016,08,24,07,20,14.80
2016,08,24,07,21,14.80
2016,08,24,07,22,14.90
2016,08,24,07,23,14.90
2016,08,24,07,24,14.90
2016,08,24,07,25,15.00
2016,08,24,07,26,15.00
2016,08,24,07,27,15.10
2016,08,24,07,28,15.10
2016,08,24,07,29,15.10
2016,08,24,07,30,15.20
2016,08,24,07,31,15.20
2016,08,24,07,32,15.30
2016,08,24,07,33,15.30
2016,08,24,07,34,15.40
2016,08,24,07,35,15.40
2016,08,24,07,36,15.50
2016,08,24,07,37,15.50
2016,08,24,07,38,15.60
2016,08,24,07,39,15.60
2016,08,24,07,40,15.70
2016,08,24,07,41,15.70
2016,08,24,07,42,15.80
2016,08,24,07,43,15.90
2016,08,24,07,44,15.90
2016,08,24,07,45,16.00
2016,08,24,07,46,16.00
2016,08,24,07,47,16.10
2016,08,24,07,48,16.30
2016,08,24,07,49,16.40
2016,08,24,07,50,16.60
2016,08,24,07,51,16.70
2016,08,24,07,52,16.90
2016,08,24,07,53,17.00
2016,08,24,07,54,17.20
2016,08,24,07,55,17.30
2016,08,24,07,56,17.50
2016,08,24,07,57,17.60
2016,08,24,07,58,17.70
2016,08,24,07,59,17.80
2016,08,24,08,00,17.80
2016,08,24,08,01,17.90
2016,08,24,08,02,17.90
2016,08,24,08,03,17.90
2016,08,24,08,04,17.90
2016,08,24,08,05,18.00
2016,08,24,08,06,18.00
2016,08,24,08,07,18.00
2016,08,24,08,08,18.00
2016,08,24,08,09,18.10
2016,08,24,08,10,18.10
2016,08,24,08,11,18.20
2016,08,24,08,12,18.20
2016,08,24,08,13,18.20
2016,08,24,08,14,18.20
2016,08,24,08,15,18.30
2016,08,24,08,16,18.30
2016,08,24,08,17,18.30
2016,08,24,08,18,18.40
2016,08,24,08,19,18.40
2016,08,24,08,20,18.50
2016,08,24,08,21,18.50
2016,08,24,08,22,18.60
2016,08,24,08,23,18.80
2016,08,24,08,24,18.90
2016,08,24,08,25,19.10
2016,08,24,08,26,19.20
2016,08,24,08,27,19.30
2016,08,24,08,28,19.40
2016,08,24,08,29,19.50
2016,08,24,08,30,19.60
2016,08,24,08,31,19.70
2016,08,24,08,32,19.80
2016,08,24,08,33,19.80
2016,08,24,08,34,19.80
2016,08,24,08,35,19.90
2016,08,24,08,36,19.90
2016,08,24,08,37,20.00
2016,08,24,08,38,20.00
2016,08,24,08,39,20.10
2016,08,24,08,40,20.20
2016,08,24,08,41,20.20
2016,08,24,08,42,20.30
2016,08,24,08,43,20.40
2016,08,24,08,44,20.50
2016,08,24,08,45,20.50
2016,08,24,08,46,20.60
2016,08,24,08,47,20.60
2016,08,24,08,48,20.60
2016,08,24,08,49,20.60
2016,08,24,08,50,20.60
2016,08,24,08,51,20.60
2016,08,24,08,52,20.70
2016,08,24,08,53,20.70
2016,08,24,08,54,20.70
2016,08,24,08,55,20.80
2016,08,24,08,56,20.80
2016,08,24,08,57,20.80
2016,08,24,08,58,20.80
2016,08,24,08,59,20.70
2016,08,24,09,00,20.70
2016,08,24,09,01,20.60
2016,08,24,09,02,20.60
2016,08,24,09,03,20.60
2016,08,24,09,04,20.60
2016,08,24,09,05,20.60
2016,08,24,09,06,20.60
2016,08,24,09,07,20.60
2016,08,24,09,08,20.70
2016,08,24,09,09,20.80
2016,08,24,09,10,20.80
2016,08,24,09,11,20.80
2016,08,24,09,12,20.90
2016,08,24,09,13,20.90
2016,08,24,09,14,20.90
2016,08,24,09,15,20.90
2016,08,24,09,16,21.00
2016,08,24,09,17,21.10
2016,08,24,09,18,21.10
2016,08,24,09,19,21.20
2016,08,24,09,20,21.20
2016,08,24,09,21,21.30
2016,08,24,09,22,21.40
2016,08,24,09,23,21.50
2016,08,24,09,24,21.60
2016,08,24,09,25,21.60
2016,08,24,09,26,21.60
2016,08,24,09,27,21.70
2016,08,24,09,28,21.70
2016,08,24,09,29,21.70
2016,08,24,09,30,21.70
2016,08,24,09,31,21.70
2016,08,24,09,32,21.70
2016,08,24,09,33,21.70
2016,08,24,09,34,21.70
2016,08,24,09,35,21.80
2016,08,24,09,36,21.90
2016,08,24,09,37,21.90
2016,08,24,09,38,22.00
2016,08,24,09,39,22.00
2016,08,24,09,40,22.00
2016,08,24,09,41,22.00
2016,08,24,09,42,22.00
2016,08,24,09,43,22.10
2016,08,24,09,44,22.10
2016,08,24,09,45,22.10
2016,08,24,09,46,22.10
2016,08,24,09,47,22.10
2016,08,24,09,48,22.10
2016,08,24,09,49,22.10
2016,08,24,09,50,22.10
2016,08,24,09,51,22.20
2016,08,24,09,52,22.20
2016,08,24,09,53,22.30
2016,08,24,09,54,22.30
2016,08,24,09,55,22.40
2016,08,24,09,56,22.40
2016,08,24,09,57,22.40
2016,08,24,09,58,22.50
2016,08,24,09,59,22.50
2016,08,24,10,00,22.60
2016,08,24,10,01,22.70
2016,08,24,10,02,22.80
2016,08,24,10,03,22.90
2016,08,24,10,04,22.90
2016,08,24,10,05,22.90
2016,08,24,10,06,23.00
2016,08,24,10,07,23.00
2016,08,24,10,08,23.10
2016,08,24,10,09,23.10
2016,08,24,10,10,23.20
2016,08,24,10,11,23.10
2016,08,24,10,12,23.00
2016,08,24,10,13,22.80
2016,08,24,10,14,22.80
2016,08,24,10,15,22.70
2016,08,24,10,16,22.60
2016,08,24,10,17,22.50
2016,08,24,10,18,22.50
2016,08,24,10,19,22.50
2016,08,24,10,20,22.40
2016,08,24,10,21,22.40
2016,08,24,10,22,22.40
2016,08,24,10,23,22.40
2016,08,24,10,24,22.40
2016,08,24,10,25,22.50
2016,08,24,10,26,22.50
2016,08,24,10,27,22.50
2016,08,24,10,28,22.60
2016,08,24,10,29,22.60
2016,08,24,10,30,22.60
2016,08,24,10,31,22.70
2016,08,24,10,32,22.70
2016,08,24,10,33,22.70
2016,08,24,10,34,22.80
2016,08,24,10,35,22.80
2016,08,24,10,36,22.80
2016,08,24,10,37,22.90
2016,08,24,10,38,23.00
2016,08,24,10,39,23.00
2016,08,24,10,40,23.00
2016,08,24,10,41,23.00
2016,08,24,10,42,23.10
2016,08,24,10,43,23.10
2016,08,24,10,44,23.10
2016,08,24,10,45,23.10
2016,08,24,10,46,23.10
2016,08,24,10,47,23.20
2016,08,24,10,48,23.30
2016,08,24,10,49,23.40
2016,08,24,10,50,23.60
2016,08,24,10,51,23.70
2016,08,24,10,52,23.70
2016,08,24,10,53,23.70
2016,08,24,10,54,23.70
2016,08,24,10,55,23.70
2016,08,24,10,56,23.80
2016,08,24,10,57,23.90
2016,08,24,10,58,24.00
2016,08,24,10,59,24.10
2016,08,24,11,00,24.10
2016,08,24,11,01,24.10
2016,08,24,11,02,24.20
2016,08,24,11,03,24.20
2016,08,24,11,04,24.10
2016,08,24,11,05,24.00
2016,08,24,11,06,23.80
2016,08,24,11,07,23.80
2016,08,24,11,08,23.80
2016,08,24,11,09,23.70
2016,08,24,11,10,23.70
2016,08,24,11,11,23.70
2016,08,24,11,12,23.70
2016,08,24,11,13,23.70
2016,08,24,11,14,23.70
2016,08,24,11,15,23.70
2016,08,24,11,16,23.80
2016,08,24,11,17,23.80
2016,08,24,11,18,23.80
2016,08,24,11,19,23.90
2016,08,24,11,20,23.90
2016,08,24,11,21,23.90
2016,08,24,11,22,24.00
2016,08,24,11,23,24.10
2016,08,24,11,24,24.10
2016,08,24,11,25,24.10
2016,08,24,11,26,24.20
2016,08,24,11,27,24.30
2016,08,24,11,28,24.40
2016,08,24,11,29,24.40
2016,08,24,11,30,24.50
2016,08,24,11,31,24.60
2016,08,24,11,32,24.60
2016,08,24,11,33,24.60
2016,08,24,11,34,24.70
2016,08,24,11,35,24.70
2016,08,24,11,36,24.70
2016,08,24,11,37,24.70
2016,08,24,11,38,24.60
2016,08,24,11,39,24.50
2016,08,24,11,40,24.30
2016,08,24,11,41,24.10
2016,08,24,11,42,23.90
2016,08,24,11,43,23.70
2016,08,24,11,44,23.60
2016,08,24,11,45,23.60
2016,08,24,11,46,23.60
2016,08,24,11,47,23.60
2016,08,24,11,48,23.50
2016,08,24,11,49,23.50
2016,08,24,11,50,23.50
2016,08,24,11,51,23.40
2016,08,24,11,52,23.40
2016,08,24,11,53,23.30
2016,08,24,11,54,23.40
2016,08,24,11,55,23.40
2016,08,24,11,56,23.40
2016,08,24,11,57,23.40
2016,08,24,11,58,23.40
2016,08,24,11,59,23.50
2016,08,24,12,00,23.60
2016,08,24,12,01,23.60
2016,08,24,12,02,23.70
2016,08,24,12,03,23.70
2016,08,24,12,04,23.70
2016,08,24,12,05,23.60
2016,08,24,12,06,23.60
2016,08,24,12,07,23.60
2016,08,24,12,08,23.60
2016,08,24,12,09,23.60
2016,08,24,12,10,23.60
2016,08,24,12,11,23.70
2016,08,24,12,12,23.60
2016,08,24,12,13,23.60
2016,08,24,12,14,23.60
2016,08,24,12,15,23.70
2016,08,24,12,16,23.60
2016,08,24,12,17,23.60
2016,08,24,12,18,23.50
2016,08,24,12,19,23.40
2016,08,24,12,20,23.40
2016,08,24,12,21,23.40
2016,08,24,12,22,23.50
2016,08,24,12,23,23.60
2016,08,24,12,24,23.60
2016,08,24,12,25,23.60
2016,08,24,12,26,23.60
2016,08,24,12,27,23.70
2016,08,24,12,28,23.80
2016,08,24,12,29,23.80
2016,08,24,12,30,23.80
2016,08,24,12,31,23.80
2016,08,24,12,32,23.90
2016,08,24,12,33,23.90
2016,08,24,12,34,23.90
2016,08,24,12,35,23.90
2016,08,24,12,36,23.90
2016,08,24,12,37,24.00
2016,08,24,12,38,24.00
2016,08,24,12,39,24.10
2016,08,24,12,40,24.10
2016,08,24,12,41,24.10
2016,08,24,12,42,24.10
2016,08,24,12,43,24.10
2016,08,24,12,44,24.10
2016,08,24,12,45,24.10
2016,08,24,12,46,24.10
2016,08,24,12,47,24.10
2016,08,24,12,48,24.10
2016,08,24,12,49,24.00
2016,08,24,12,50,23.90
2016,08,24,12,51,23.80
2016,08,24,12,52,23.70
2016,08,24,12,53,23.70
2016,08,24,12,54,23.80
2016,08,24,12,55,23.80
2016,08,24,12,56,23.90
2016,08,24,12,57,23.90
2016,08,24,12,58,23.90
2016,08,24,12,59,24.00
2016,08,24,13,00,24.00
2016,08,24,13,01,24.10
2016,08,24,13,02,23.90
2016,08,24,13,03,23.80
2016,08,24,13,04,23.70
2016,08,24,13,05,23.50
2016,08,24,13,06,23.40
2016,08,24,13,07,23.20
2016,08,24,13,08,23.10
2016,08,24,13,09,23.00
2016,08,24,13,10,23.00
2016,08,24,13,11,23.10
2016,08,24,13,12,23.10
2016,08,24,13,13,23.10
2016,08,24,13,14,23.20
2016,08,24,13,15,23.30
2016,08,24,13,16,23.30
2016,08,24,13,17,23.30
2016,08,24,13,18,23.30
2016,08,24,13,19,23.30
2016,08,24,13,20,23.20
2016,08,24,13,21,23.20
2016,08,24,13,22,23.20
2016,08,24,13,23,23.20
2016,08,24,13,24,23.20
2016,08,24,13,25,23.20
2016,08,24,13,26,23.30
2016,08,24,13,27,23.40
2016,08,24,13,28,23.40
2016,08,24,13,29,23.50
2016,08,24,13,30,23.50
2016,08,24,13,31,23.40
2016,08,24,13,32,23.30
2016,08,24,13,33,23.20
2016,08,24,13,34,23.00
2016,08,24,13,35,22.80
2016,08,24,13,36,22.70
2016,08,24,13,37,22.60
2016,08,24,13,38,22.70
2016,08,24,13,39,22.70
2016,08,24,13,40,22.60
2016,08,24,13,41,22.60
2016,08,24,13,42,22.60
2016,08,24,13,43,22.60
2016,08,24,13,44,22.60
2016,08,24,13,45,22.70
2016,08,24,13,46,22.80
2016,08,24,13,47,22.90
2016,08,24,13,48,22.80
2016,08,24,13,49,22.90
2016,08,24,13,50,22.90
2016,08,24,13,51,22.90
2016,08,24,13,52,22.90
2016,08,24,13,53,23.00
2016,08,24,13,54,23.10
2016,08,24,13,55,23.20
2016,08,24,13,56,23.40
2016,08,24,13,57,23.50
2016,08,24,13,58,23.60
2016,08,24,13,59,23.70
2016,08,24,14,00,23.80
2016,08,24,14,01,24.00
2016,08,24,14,02,24.10
2016,08,24,14,03,24.30
2016,08,24,14,04,24.50
2016,08,24,14,05,24.60
2016,08,24,14,06,24.70
2016,08,24,14,07,24.80
2016,08,24,14,08,24.90
2016,08,24,14,09,25.00
2016,08,24,14,10,25.20
2016,08,24,14,11,25.40
2016,08,24,14,12,25.60
2016,08,24,14,13,25.80
2016,08,24,14,14,26.00
2016,08,24,14,15,26.10
2016,08,24,14,16,26.10
2016,08,24,14,17,26.10
2016,08,24,14,18,26.10
2016,08,24,14,19,26.20
2016,08,24,14,20,26.20
2016,08,24,14,21,26.40
2016,08,24,14,22,26.50
2016,08,24,14,23,26.60
2016,08,24,14,24,26.60
2016,08,24,14,25,26.60
2016,08,24,14,26,26.50
2016,08,24,14,27,26.40
2016,08,24,14,28,26.40
2016,08,24,14,29,26.40
2016,08,24,14,30,26.30
2016,08,24,14,31,26.20
2016,08,24,14,32,26.10
2016,08,24,14,33,26.00
2016,08,24,14,34,25.90
2016,08,24,14,35,25.80
2016,08,24,14,36,25.80
2016,08,24,14,37,25.90
2016,08,24,14,38,26.00
2016,08,24,14,39,26.10
2016,08,24,14,40,26.20
2016,08,24,14,41,26.40
2016,08,24,14,42,26.50
2016,08,24,14,43,26.60
2016,08,24,14,44,26.70
2016,08,24,14,45,26.70
2016,08,24,14,46,26.70
2016,08,24,14,47,26.60
2016,08,24,14,48,26.60
2016,08,24,14,49,26.60
2016,08,24,14,50,26.60
2016,08,24,14,51,26.60
2016,08,24,14,52,26.60
2016,08,24,14,53,26.60
2016,08,24,14,54,26.60
2016,08,24,14,55,26.60
2016,08,24,14,56,26.70
2016,08,24,14,57,26.70
2016,08,24,14,58,26.80
2016,08,24,14,59,26.80
2016,08,24,15,00,26.80
2016,08,24,15,01,26.90
2016,08,24,15,02,26.90
2016,08,24,15,03,27.10
2016,08,24,15,04,27.20
2016,08,24,15,05,27.30
2016,08,24,15,06,27.40
2016,08,24,15,07,27.40
2016,08,24,15,08,27.40
2016,08,24,15,09,27.50
2016,08,24,15,10,27.50
2016,08,24,15,11,27.60
2016,08,24,15,12,27.60
2016,08,24,15,13,27.40
2016,08,24,15,14,27.30
2016,08,24,15,15,27.30
2016,08,24,15,16,27.30
2016,08,24,15,17,27.30
2016,08,24,15,18,27.20
2016,08,24,15,19,27.10
2016,08,24,15,20,27.00
2016,08,24,15,21,26.90
2016,08,24,15,22,26.80
2016,08,24,15,23,26.70
2016,08,24,15,24,26.70
2016,08,24,15,25,26.60
2016,08,24,15,26,26.60
2016,08,24,15,27,26.60
2016,08,24,15,28,26.50
2016,08,24,15,29,26.40
2016,08,24,15,30,26.40
2016,08,24,15,31,26.40
2016,08,24,15,32,26.40
2016,08,24,15,33,26.40
2016,08,24,15,34,26.50
2016,08,24,15,35,26.50
2016,08,24,15,36,26.60
2016,08,24,15,37,26.70
2016,08,24,15,38,26.80
2016,08,24,15,39,26.80
2016,08,24,15,40,26.90
2016,08,24,15,41,26.90
2016,08,24,15,42,26.90
2016,08,24,15,43,27.00
2016,08,24,15,44,27.10
2016,08,24,15,45,27.20
2016,08,24,15,46,27.20
2016,08,24,15,47,27.30
2016,08,24,15,48,27.40
2016,08,24,15,49,27.40
2016,08,24,15,50,27.40
2016,08,24,15,51,27.30
2016,08,24,15,52,27.30
2016,08,24,15,53,27.20
2016,08,24,15,54,27.10
2016,08,24,15,55,27.00
2016,08,24,15,56,26.90
2016,08,24,15,57,26.90
2016,08,24,15,58,26.80
2016,08,24,15,59,26.70
2016,08,24,16,00,26.50
2016,08,24,16,01,26.40
2016,08,24,16,02,26.30
2016,08,24,16,03,26.20
2016,08,24,16,04,26.20
2016,08,24,16,05,26.20
2016,08,24,16,06,26.20
2016,08,24,16,07,26.10
2016,08,24,16,08,26.10
2016,08,24,16,09,26.10
2016,08,24,16,10,26.10
2016,08,24,16,11,26.20
2016,08,24,16,12,26.20
2016,08,24,16,13,26.10
2016,08,24,16,14,26.10
2016,08,24,16,15,26.10
2016,08,24,16,16,26.20
2016,08,24,16,17,26.40
2016,08,24,16,18,26.50
2016,08,24,16,19,26.60
2016,08,24,16,20,26.60
2016,08,24,16,21,26.60
2016,08,24,16,22,26.60
2016,08,24,16,23,26.60
2016,08,24,16,24,26.70
2016,08,24,16,25,26.70
2016,08,24,16,26,26.80
2016,08,24,16,27,26.80
2016,08,24,16,28,26.90
2016,08,24,16,29,26.90
2016,08,24,16,30,26.90
2016,08,24,16,31,26.80
2016,08,24,16,32,26.80
2016,08,24,16,33,26.90
2016,08,24,16,34,26.90
2016,08,24,16,35,27.00
2016,08,24,16,36,27.10
2016,08,24,16,37,27.10
2016,08,24,16,38,27.10
2016,08,24,16,39,27.10
2016,08,24,16,40,27.10
2016,08,24,16,41,27.00
2016,08,24,16,42,27.00
2016,08,24,16,43,27.00
2016,08,24,16,44,27.10
2016,08,24,16,45,27.10
2016,08,24,16,46,27.20
2016,08,24,16,47,27.30
2016,08,24,16,48,27.40
2016,08,24,16,49,27.50
2016,08,24,16,50,27.70
2016,08,24,16,51,27.80
2016,08,24,16,52,27.80
2016,08,24,16,53,27.80
2016,08,24,16,54,27.80
2016,08,24,16,55,27.90
2016,08,24,16,56,27.90
2016,08,24,16,57,27.90
2016,08,24,16,58,27.90
2016,08,24,16,59,27.90
2016,08,24,17,00,28.00
2016,08,24,17,01,28.00
2016,08,24,17,02,28.10
2016,08,24,17,03,28.00
2016,08,24,17,04,28.00
2016,08,24,17,05,27.90
2016,08,24,17,06,27.90
2016,08,24,17,07,27.90
2016,08,24,17,08,27.90
2016,08,24,17,09,27.90
2016,08,24,17,10,27.80
2016,08,24,17,11,27.80
2016,08,24,17,12,27.80
2016,08,24,17,13,27.80
2016,08,24,17,14,27.70
2016,08,24,17,15,27.80
2016,08,24,17,16,27.80
2016,08,24,17,17,27.80
2016,08,24,17,18,27.70
2016,08,24,17,19,27.70